SWA1413 KSMF-KLAX

Flight info

Callsign SWA1413
Flight time 1h 5m
Altitude 35000
Route FTHIL3 FRA REBRG IRNMN2
Aircraft B737/M-SDE2E3FGHIRWXY/LB1

Departure

Time 2026-04-20 21:59
Airport Sacramento International Airport (KSMF)

Arrival

Time 2026-04-20 23:04
Airport Los Angeles International Airport (KLAX)
Time Latitude Longitude Altitude Speed Heading
2026-04-20 21:27 38.69627 -121.59360 30 ft 0 kts 181°
2026-04-20 21:43 38.69635 -121.59360 30 ft 2 kts 182°
2026-04-20 21:43 38.69649 -121.59355 30 ft 2 kts 205°
2026-04-20 21:43 38.69662 -121.59345 30 ft 2 kts 223°
2026-04-20 21:43 38.69668 -121.59337 30 ft 1 kts 234°
2026-04-20 21:44 38.69672 -121.59330 30 ft 0 kts 235°
2026-04-20 21:49 38.69670 -121.59332 30 ft 2 kts 237°
2026-04-20 21:49 38.69669 -121.59381 30 ft 8 kts 276°
2026-04-20 21:49 38.69682 -121.59483 30 ft 13 kts 279°
2026-04-20 21:50 38.69698 -121.59626 30 ft 18 kts 274°
2026-04-20 21:50 38.69701 -121.59763 30 ft 12 kts 270°
2026-04-20 21:50 38.69723 -121.59842 30 ft 9 kts 324°
2026-04-20 21:50 38.69802 -121.59862 30 ft 15 kts 358°
2026-04-20 21:51 38.69940 -121.59860 30 ft 24 kts 360°
2026-04-20 21:51 38.70137 -121.59857 30 ft 30 kts 360°
2026-04-20 21:51 38.70327 -121.59854 30 ft 24 kts
2026-04-20 21:51 38.70470 -121.59851 30 ft 17 kts
2026-04-20 21:52 38.70571 -121.59849 30 ft 11 kts
2026-04-20 21:52 38.70634 -121.59849 30 ft 6 kts
2026-04-20 21:52 38.70668 -121.59849 30 ft 4 kts 356°
2026-04-20 21:52 38.70690 -121.59856 30 ft 0 kts 337°
2026-04-20 21:53 38.70691 -121.59856 30 ft 1 kts 337°
2026-04-20 21:53 38.70706 -121.59866 30 ft 1 kts 319°
2026-04-20 21:53 38.70712 -121.59875 30 ft 2 kts 302°
2026-04-20 21:53 38.70718 -121.59907 30 ft 3 kts 273°
2026-04-20 21:54 38.70719 -121.59933 30 ft 4 kts 270°
2026-04-20 21:54 38.70719 -121.59957 30 ft 0 kts 271°
2026-04-20 21:56 38.70719 -121.59969 30 ft 3 kts 271°
2026-04-20 21:56 38.70720 -121.60011 30 ft 5 kts 271°
2026-04-20 21:56 38.70715 -121.60066 30 ft 5 kts 251°
2026-04-20 21:56 38.70687 -121.60107 30 ft 5 kts 203°
2026-04-20 21:57 38.70670 -121.60111 30 ft 0 kts 181°
2026-04-20 21:58 38.70666 -121.60111 30 ft 2 kts 181°
2026-04-20 21:58 38.70454 -121.60115 30 ft 66 kts 180°
2026-04-20 21:58 38.69769 -121.60125 30 ft 129 kts 181°
2026-04-20 21:58 38.68710 -121.60143 96 ft 171 kts 181°
2026-04-20 21:59 38.67520 -121.60139 709 ft 171 kts 182°
2026-04-20 21:59 38.66385 -121.59916 1392 ft 173 kts 155°
2026-04-20 21:59 38.65483 -121.58765 1680 ft 200 kts 118°
2026-04-20 21:59 38.64852 -121.57092 2173 ft 218 kts 117°
2026-04-20 22:00 38.64143 -121.55279 2591 ft 241 kts 121°
2026-04-20 22:00 38.63260 -121.53410 3251 ft 254 kts 125°
2026-04-20 22:00 38.62259 -121.51524 4148 ft 258 kts 127°
2026-04-20 22:00 38.61266 -121.49639 5088 ft 260 kts 126°
2026-04-20 22:01 38.60289 -121.47686 5978 ft 263 kts 126°
2026-04-20 22:01 38.59345 -121.45708 6845 ft 266 kts 125°
2026-04-20 22:01 38.58403 -121.43675 7686 ft 269 kts 125°
2026-04-20 22:01 38.57459 -121.41612 8513 ft 272 kts 125°
2026-04-20 22:02 38.56505 -121.39511 9330 ft 274 kts 126°
2026-04-20 22:02 38.55553 -121.37397 10103 ft 278 kts 126°
2026-04-20 22:02 38.54570 -121.35203 10485 ft 297 kts 126°
2026-04-20 22:02 38.53510 -121.32840 10661 ft 321 kts 126°
2026-04-20 22:03 38.52373 -121.30322 11084 ft 336 kts 126°
2026-04-20 22:03 38.51189 -121.27728 11840 ft 340 kts 127°
2026-04-20 22:03 38.49989 -121.25142 12600 ft 344 kts 128°
2026-04-20 22:03 38.48727 -121.22509 13361 ft 347 kts 128°
2026-04-20 22:04 38.47451 -121.19875 14052 ft 352 kts 129°
2026-04-20 22:04 38.46166 -121.17225 14777 ft 355 kts 129°
2026-04-20 22:04 38.44842 -121.14548 15444 ft 359 kts 129°
2026-04-20 22:04 38.43484 -121.11872 16099 ft 363 kts 130°
2026-04-20 22:05 38.42101 -121.09229 16739 ft 366 kts 131°
2026-04-20 22:05 38.40658 -121.06557 17374 ft 369 kts 132°
2026-04-20 22:05 38.39159 -121.03845 18000 ft 373 kts 133°
2026-04-20 22:05 38.37660 -121.01180 18588 ft 377 kts 133°
2026-04-20 22:06 38.36127 -120.98479 19170 ft 381 kts 133°
2026-04-20 22:06 38.34585 -120.95669 19731 ft 386 kts 133°
2026-04-20 22:06 38.33052 -120.92879 20289 ft 390 kts 133°
2026-04-20 22:06 38.31459 -120.90048 20811 ft 394 kts 134°
2026-04-20 22:07 38.29863 -120.87231 21335 ft 398 kts 134°
2026-04-20 22:07 38.28237 -120.84332 21858 ft 403 kts 134°
2026-04-20 22:07 38.26644 -120.81429 22356 ft 407 kts 133°
2026-04-20 22:07 38.25025 -120.78419 22824 ft 412 kts 133°
2026-04-20 22:08 38.23410 -120.75375 23310 ft 417 kts 132°
2026-04-20 22:08 38.21801 -120.72315 23792 ft 420 kts 132°
2026-04-20 22:08 38.20179 -120.69216 24243 ft 424 kts 132°
2026-04-20 22:08 38.18528 -120.66053 24666 ft 429 kts 131°
2026-04-20 22:09 38.16896 -120.62920 25109 ft 432 kts 131°
2026-04-20 22:09 38.15225 -120.59707 25554 ft 436 kts 131°
2026-04-20 22:09 38.13547 -120.56480 25983 ft 439 kts 131°
2026-04-20 22:09 38.11859 -120.53236 26394 ft 442 kts 130°
2026-04-20 22:10 38.10174 -120.49995 26790 ft 446 kts 130°
2026-04-20 22:10 38.08460 -120.46701 27188 ft 449 kts 130°
2026-04-20 22:10 38.06736 -120.43393 27564 ft 452 kts 130°
2026-04-20 22:10 38.04967 -120.40095 27938 ft 453 kts 131°
2026-04-20 22:11 38.03129 -120.36843 28311 ft 455 kts 132°
2026-04-20 22:11 38.01344 -120.33696 28670 ft 457 kts 132°
2026-04-20 22:11 37.99491 -120.30418 29018 ft 460 kts 132°
2026-04-20 22:11 37.97607 -120.27135 29453 ft 457 kts 134°
2026-04-20 22:12 37.95569 -120.24112 29883 ft 452 kts 139°
2026-04-20 22:12 37.93309 -120.21373 30278 ft 447 kts 146°
2026-04-20 22:12 37.90803 -120.19081 30707 ft 440 kts 153°
2026-04-20 22:12 37.88234 -120.17054 31141 ft 438 kts 154°
2026-04-20 22:13 37.85619 -120.15062 31531 ft 437 kts 155°
2026-04-20 22:13 37.83038 -120.13114 31936 ft 436 kts 155°
2026-04-20 22:13 37.80449 -120.11168 32361 ft 434 kts 155°
2026-04-20 22:13 37.77844 -120.09216 32744 ft 433 kts 155°
2026-04-20 22:14 37.75301 -120.07316 33109 ft 431 kts 155°
2026-04-20 22:14 37.72712 -120.05385 33493 ft 429 kts 155°
2026-04-20 22:14 37.70152 -120.03478 33853 ft 428 kts 155°
2026-04-20 22:14 37.67604 -120.01583 34166 ft 427 kts 155°
2026-04-20 22:15 37.65036 -119.99676 34480 ft 427 kts 155°
2026-04-20 22:15 37.62511 -119.97805 34720 ft 427 kts 155°
2026-04-20 22:15 37.59949 -119.95908 34979 ft 427 kts 155°
2026-04-20 22:16 37.54818 -119.92114 35028 ft 434 kts 154°
2026-04-20 22:16 37.49577 -119.88245 35027 ft 437 kts 154°
2026-04-20 22:17 37.44228 -119.84863 35020 ft 425 kts 171°
2026-04-20 22:17 37.41297 -119.84435 35040 ft 419 kts 182°
2026-04-20 22:17 37.38421 -119.84504 35029 ft 419 kts 185°
2026-04-20 22:18 37.32603 -119.84760 35026 ft 420 kts 184°
2026-04-20 22:18 37.26755 -119.84849 35026 ft 420 kts 183°
2026-04-20 22:19 37.20922 -119.84853 35008 ft 421 kts 182°
2026-04-20 22:19 37.15093 -119.84821 34988 ft 422 kts 182°
2026-04-20 22:20 37.09223 -119.84767 34972 ft 423 kts 182°
2026-04-20 22:20 37.03351 -119.84701 34972 ft 423 kts 182°
2026-04-20 22:21 36.97487 -119.84631 34972 ft 424 kts 182°
2026-04-20 22:21 36.91576 -119.84555 34972 ft 424 kts 182°
2026-04-20 22:22 36.84751 -119.84466 34972 ft 425 kts 182°
2026-04-20 22:22 36.79842 -119.84401 34972 ft 425 kts 181°
2026-04-20 22:23 36.73938 -119.84322 34972 ft 426 kts 181°
2026-04-20 22:23 36.68027 -119.84244 34972 ft 425 kts 181°
2026-04-20 22:24 36.62136 -119.84165 34973 ft 425 kts 181°
2026-04-20 22:24 36.56256 -119.84087 34983 ft 425 kts 181°
2026-04-20 22:25 36.50363 -119.84009 34993 ft 425 kts 181°
2026-04-20 22:25 36.44474 -119.83931 35000 ft 426 kts 181°
2026-04-20 22:26 36.38597 -119.83853 34999 ft 425 kts 181°
2026-04-20 22:26 36.32701 -119.83775 34999 ft 425 kts 181°
2026-04-20 22:27 36.23837 -119.83659 35000 ft 425 kts 181°
2026-04-20 22:27 36.17948 -119.83581 35000 ft 425 kts 181°
2026-04-20 22:28 36.12074 -119.83504 34999 ft 425 kts 181°
2026-04-20 22:28 36.06180 -119.83426 34999 ft 425 kts 181°
2026-04-20 22:29 36.00321 -119.83350 34999 ft 425 kts 181°
2026-04-20 22:29 35.94401 -119.83272 34995 ft 425 kts 181°
2026-04-20 22:30 35.88628 -119.83196 34989 ft 425 kts 181°
2026-04-20 22:30 35.82712 -119.83119 34982 ft 425 kts 181°
2026-04-20 22:31 35.76812 -119.83042 34981 ft 425 kts 181°
2026-04-20 22:31 35.70919 -119.82966 34981 ft 426 kts 181°
2026-04-20 22:32 35.65015 -119.82889 34981 ft 425 kts 181°
2026-04-20 22:32 35.59126 -119.82812 34981 ft 425 kts 181°
2026-04-20 22:33 35.53217 -119.82736 34981 ft 426 kts 181°
2026-04-20 22:33 35.47305 -119.82660 34994 ft 426 kts 181°
2026-04-20 22:34 35.41412 -119.82584 35018 ft 426 kts 181°
2026-04-20 22:34 35.35480 -119.82471 35040 ft 427 kts 179°
2026-04-20 22:35 35.29661 -119.81296 35044 ft 431 kts 165°
2026-04-20 22:35 35.24279 -119.78036 35047 ft 438 kts 148°
2026-04-20 22:36 35.19384 -119.73579 35045 ft 439 kts 146°
2026-04-20 22:36 35.14542 -119.69042 35045 ft 439 kts 145°
2026-04-20 22:37 35.09722 -119.64538 34823 ft 432 kts 145°
2026-04-20 22:37 35.07374 -119.62346 34061 ft 427 kts 145°
2026-04-20 22:37 35.05025 -119.60159 33219 ft 430 kts 145°
2026-04-20 22:38 35.02661 -119.57961 32452 ft 434 kts 145°
2026-04-20 22:38 35.00258 -119.55728 31653 ft 438 kts 146°
2026-04-20 22:38 34.97865 -119.53505 30837 ft 433 kts 146°
2026-04-20 22:38 34.95440 -119.51257 30025 ft 439 kts 146°
2026-04-20 22:39 34.93050 -119.49042 29447 ft 440 kts 146°
2026-04-20 22:39 34.90622 -119.46806 29048 ft 434 kts 147°
2026-04-20 22:39 34.85768 -119.42455 29046 ft 441 kts 147°
2026-04-20 22:40 34.83286 -119.40237 28764 ft 433 kts 147°
2026-04-20 22:40 34.80900 -119.38102 28062 ft 423 kts 147°
2026-04-20 22:40 34.78539 -119.35993 27433 ft 427 kts 147°
2026-04-20 22:40 34.76151 -119.33865 26787 ft 427 kts 148°
2026-04-20 22:41 34.73795 -119.31773 26277 ft 411 kts 149°
2026-04-20 22:41 34.71508 -119.29767 25747 ft 399 kts 149°
2026-04-20 22:41 34.69311 -119.27846 25149 ft 389 kts 149°
2026-04-20 22:41 34.67133 -119.25946 24593 ft 385 kts 150°
2026-04-20 22:42 34.64943 -119.24044 24124 ft 389 kts 150°
2026-04-20 22:42 34.62769 -119.22167 24072 ft 386 kts 150°
2026-04-20 22:42 34.60559 -119.20267 23908 ft 389 kts 150°
2026-04-20 22:42 34.58383 -119.18391 23506 ft 377 kts 150°
2026-04-20 22:43 34.56272 -119.16570 22955 ft 380 kts 149°
2026-04-20 22:43 34.54120 -119.14681 22382 ft 378 kts 149°
2026-04-20 22:43 34.52040 -119.12834 21829 ft 368 kts 149°
2026-04-20 22:43 34.49987 -119.11012 21297 ft 370 kts 149°
2026-04-20 22:44 34.47902 -119.09170 20735 ft 369 kts 149°
2026-04-20 22:44 34.45875 -119.07374 20185 ft 359 kts 149°
2026-04-20 22:44 34.43881 -119.05614 19667 ft 362 kts 149°
2026-04-20 22:44 34.41837 -119.03838 19110 ft 359 kts 149°
2026-04-20 22:45 34.39843 -119.02108 18567 ft 349 kts 149°
2026-04-20 22:45 34.37855 -119.00389 18053 ft 353 kts 149°
2026-04-20 22:45 34.35871 -118.98676 17507 ft 348 kts 149°
2026-04-20 22:45 34.33951 -118.97004 17131 ft 343 kts 148°
2026-04-20 22:46 34.31998 -118.95252 16918 ft 351 kts 148°
2026-04-20 22:46 34.30080 -118.93507 16375 ft 345 kts 147°
2026-04-20 22:46 34.28176 -118.91770 15843 ft 336 kts 147°
2026-04-20 22:46 34.26301 -118.90067 15346 ft 342 kts 147°
2026-04-20 22:47 34.24419 -118.88351 14808 ft 335 kts 147°
2026-04-20 22:47 34.22604 -118.86679 14305 ft 330 kts 146°
2026-04-20 22:47 34.20762 -118.84987 13812 ft 333 kts 146°
2026-04-20 22:47 34.18954 -118.83324 13362 ft 321 kts 146°
2026-04-20 22:48 34.17223 -118.81731 13067 ft 306 kts 146°
2026-04-20 22:48 34.15603 -118.80148 12952 ft 290 kts 142°
2026-04-20 22:48 34.14116 -118.78535 12605 ft 287 kts 141°
2026-04-20 22:48 34.12639 -118.76908 12230 ft 291 kts 141°
2026-04-20 22:49 34.11167 -118.75287 11842 ft 282 kts 141°
2026-04-20 22:49 34.09716 -118.73701 11497 ft 287 kts 141°
2026-04-20 22:49 34.08242 -118.72096 11111 ft 283 kts 140°
2026-04-20 22:49 34.06809 -118.70537 10751 ft 279 kts 140°
2026-04-20 22:50 34.05328 -118.68930 10395 ft 285 kts 140°
2026-04-20 22:50 34.03969 -118.67275 10018 ft 277 kts 129°
2026-04-20 22:50 34.03034 -118.65310 9884 ft 263 kts 111°
2026-04-20 22:50 34.02598 -118.63104 9622 ft 279 kts 100°
2026-04-20 22:51 34.02368 -118.60783 9217 ft 274 kts 97°
2026-04-20 22:51 34.02194 -118.58541 8889 ft 266 kts 96°
2026-04-20 22:51 34.02015 -118.56314 8581 ft 273 kts 96°
2026-04-20 22:51 34.01825 -118.54050 8221 ft 265 kts 96°
2026-04-20 22:52 34.01635 -118.51859 7924 ft 266 kts 97°
2026-04-20 22:52 34.01442 -118.49669 7621 ft 257 kts 97°
2026-04-20 22:52 34.01256 -118.47568 7411 ft 243 kts 97°
2026-04-20 22:52 34.01204 -118.45615 7279 ft 228 kts 84°
2026-04-20 22:53 34.01436 -118.43722 7066 ft 234 kts 80°
2026-04-20 22:53 34.01764 -118.41769 6785 ft 236 kts 78°
2026-04-20 22:53 34.02108 -118.39842 6524 ft 234 kts 78°
2026-04-20 22:53 34.02437 -118.37944 6279 ft 232 kts 79°
2026-04-20 22:54 34.02751 -118.36028 6040 ft 231 kts 81°
2026-04-20 22:54 34.02976 -118.34133 6046 ft 227 kts 84°
2026-04-20 22:54 34.03153 -118.32255 5997 ft 222 kts 84°
2026-04-20 22:54 34.03323 -118.30414 5990 ft 219 kts 84°
2026-04-20 22:55 34.03502 -118.28586 5773 ft 223 kts 83°
2026-04-20 22:55 34.03700 -118.26751 5412 ft 214 kts 83°
2026-04-20 22:55 34.03888 -118.25029 5065 ft 206 kts 83°
2026-04-20 22:55 34.04069 -118.23347 4762 ft 197 kts 83°
2026-04-20 22:56 34.04242 -118.21723 4514 ft 195 kts 84°
2026-04-20 22:56 34.04414 -118.20093 4270 ft 196 kts 84°
2026-04-20 22:56 34.04584 -118.18464 4023 ft 196 kts 84°
2026-04-20 22:56 34.04755 -118.16832 3772 ft 195 kts 84°
2026-04-20 22:57 34.04899 -118.15217 3513 ft 191 kts 93°
2026-04-20 22:57 34.04470 -118.13790 3219 ft 177 kts 134°
2026-04-20 22:57 34.03499 -118.12985 3018 ft 166 kts 157°
2026-04-20 22:57 34.02422 -118.12479 3021 ft 167 kts 161°
2026-04-20 22:58 34.01278 -118.12167 2991 ft 169 kts 181°
2026-04-20 22:58 34.00182 -118.12567 3010 ft 166 kts 211°
2026-04-20 22:58 33.99215 -118.13372 3008 ft 170 kts 217°
2026-04-20 22:58 33.98319 -118.14261 2977 ft 167 kts 231°
2026-04-20 22:59 33.97846 -118.15543 3025 ft 169 kts 256°
2026-04-20 22:59 33.97627 -118.16944 2997 ft 172 kts 260°
2026-04-20 22:59 33.97458 -118.18328 3008 ft 164 kts 261°
2026-04-20 22:59 33.97304 -118.19688 2993 ft 161 kts 261°
2026-04-20 23:00 33.97164 -118.20998 2999 ft 153 kts 261°
2026-04-20 23:00 33.97030 -118.22278 3081 ft 160 kts 262°
2026-04-20 23:00 33.96896 -118.23592 2796 ft 150 kts 262°
2026-04-20 23:00 33.96775 -118.24787 2630 ft 141 kts 262°
2026-04-20 23:01 33.96655 -118.25974 2485 ft 144 kts 262°
2026-04-20 23:01 33.96535 -118.27155 2249 ft 140 kts 262°
2026-04-20 23:01 33.96417 -118.28325 2101 ft 140 kts 262°
2026-04-20 23:01 33.96300 -118.29483 1892 ft 139 kts 262°
2026-04-20 23:02 33.96183 -118.30631 1703 ft 137 kts 263°
2026-04-20 23:02 33.96068 -118.31764 1521 ft 132 kts 264°
2026-04-20 23:02 33.95958 -118.32847 1354 ft 132 kts 264°
2026-04-20 23:02 33.95850 -118.33955 1184 ft 133 kts 264°
2026-04-20 23:03 33.95746 -118.35061 1020 ft 131 kts 263°
2026-04-20 23:03 33.95633 -118.36135 814 ft 130 kts 261°
2026-04-20 23:03 33.95504 -118.37205 674 ft 128 kts 263°
2026-04-20 23:03 33.95395 -118.38266 475 ft 128 kts 263°
2026-04-20 23:04 33.95295 -118.39320 292 ft 126 kts 263°
2026-04-20 23:04 33.95194 -118.40367 147 ft 124 kts 263°
2026-04-20 23:04 33.95097 -118.41287 111 ft 82 kts 263°
2026-04-20 23:04 33.95054 -118.41685 111 ft 25 kts 255°
2026-04-20 23:05 33.94998 -118.41824 111 ft 13 kts 237°
2026-04-20 23:05 33.94953 -118.41903 111 ft 12 kts 233°
2026-04-20 23:05 33.94890 -118.42001 111 ft 17 kts 233°
2026-04-20 23:05 33.94809 -118.42130 111 ft 18 kts 233°
2026-04-20 23:06 33.94746 -118.42230 111 ft 11 kts 232°
2026-04-20 23:06 33.94717 -118.42254 111 ft 0 kts 195°
2026-04-20 23:06 33.94695 -118.42251 111 ft 7 kts 153°
2026-04-20 23:07 33.94688 -118.42182 111 ft 9 kts 80°
2026-04-20 23:07 33.94696 -118.42101 111 ft 9 kts 83°
2026-04-20 23:07 33.94705 -118.42010 111 ft 13 kts 83°
2026-04-20 23:07 33.94720 -118.41874 111 ft 18 kts 83°
2026-04-20 23:08 33.94736 -118.41721 111 ft 18 kts 83°
2026-04-20 23:08 33.94752 -118.41566 111 ft 18 kts 83°
2026-04-20 23:08 33.94776 -118.41399 111 ft 22 kts 75°
2026-04-20 23:08 33.94803 -118.41202 111 ft 27 kts 83°
2026-04-20 23:09 33.94830 -118.40939 111 ft 35 kts 83°
2026-04-20 23:09 33.94861 -118.40633 111 ft 35 kts 83°
2026-04-20 23:09 33.94887 -118.40382 111 ft 21 kts 82°
2026-04-20 23:09 33.94837 -118.40284 111 ft 11 kts 161°
2026-04-20 23:10 33.94779 -118.40257 111 ft 5 kts 134°
2026-04-20 23:10 33.94765 -118.40217 111 ft 5 kts 111°
2026-04-20 23:10 33.94759 -118.40195 111 ft 0 kts 111°
2026-04-20 23:10 33.94758 -118.40190 111 ft 0 kts 111°